Location: Newark
(42.7589°N, 8.8294°W)
Time: 21:13:53
(UTC+00:00)

N. Korean satellite - Visible Passes

Search period start: 19 January 2020 00:00
Search period end: 29 January 2020 00:00
Orbit: 454 x 508 km, 97.2° (Epoch: 19 January)

Date Brightness Start Highest point End Pass type
(mag) Time Alt. Az. Time Alt. Az. Time Alt. Az.
19 Jan 6.6 06:45:25 10° N 06:48:51 52° WNW 06:52:19 10° SSW visible
20 Jan 6.8 06:19:52 10° NNE 06:23:23 69° E 06:26:57 10° S visible
20 Jan 9.7 18:30:29 10° SW 18:32:47 17° W 18:35:05 10° NW visible
21 Jan 8.5 05:54:39 10° NNE 05:57:51 31° E 06:01:04 10° SSE visible
21 Jan 8.4 18:04:00 10° SSW 18:07:09 35° W 18:10:19 10° NNW visible
22 Jan 9.7 05:29:59 10° NE 05:32:12 16° E 05:34:26 10° SE visible
22 Jan 7.2 07:02:29 10° N 07:05:40 32° WNW 07:08:53 10° SW visible
23 Jan 6.4 06:36:44 10° N 06:40:15 69° WNW 06:43:51 10° SSW visible
23 Jan 10.3 18:49:15 10° W 18:49:48 10° W 18:50:20 10° W visible
24 Jan 7.4 06:11:16 10° NNE 06:14:46 53° E 06:18:18 10° S visible
24 Jan 9.4 18:21:26 10° SSW 18:24:06 21° W 18:26:47 10° NW visible
25 Jan 8.9 05:46:11 10° NE 05:49:11 25° E 05:52:13 10° SSE visible
25 Jan 7.8 07:19:44 10° NNW 07:22:26 21° WNW 07:25:10 10° WSW visible
26 Jan 10.0 05:21:53 10° ENE 05:23:31 13° E 05:25:10 10° ESE visible
26 Jan 6.9 06:53:42 10° N 06:57:05 40° WNW 07:00:30 10° SW visible
27 Jan 6.5 06:28:02 10° NNE 06:31:39 89° WNW 06:35:17 10° SSW visible
27 Jan 9.9 18:39:21 10° WSW 18:41:03 13° W 18:42:47 10° WNW visible
28 Jan 7.9 06:02:41 10° NNE 06:06:07 41° E 06:09:35 10° S visible
28 Jan 9.0 18:12:26 10° SSW 18:15:23 27° W 18:18:22 10° NW visible
